Location: Jackson
(42.2460°N, 84.4010°W)
Time: 18:51:13
(UTC-04:00)

Courier 1B Rocket - Pass Details

Date: 16 February 2026
Orbit: 920 x 1201 km, 28.2° (Epoch: 12 March)

Event Time Altitude Azimuth Distance (km) Brightness Sun altitude
Rises 00:54:09 0° 254° (WSW) 3,734 - -60.1°
Reaches altitude 10° 00:57:49 10° 235° (SW) 2,838 - -60.0°
Maximum altitude 01:02:00 17° 197° (SSW) 2,426 - -60.0°
Drops below altitude 10° 01:06:21 10° 160° (SSE) 2,963 - -59.9°
Sets 01:10:19 0° 141° (SE) 3,974 - -59.8°
